Погода в Кортрейке

Бельгия     50°49′25″N   3°15′32″E
темп.,
°C
ветер,
м/с
пор.,
м/с
влажн.,
%
обл.,
%
осадки,
мм/ч
давл.,
гПа
погр.,
м
22 апреля, чт
чт2223:00+6ссв5127190 0.0 1022454
02:00+5св4106813 0.0 1024422
05:00+3св4107753 0.0 1024374
08:00+3св497129 0.0 1026389
11:00+8всв5650100 0.0 1027871
14:00+12св45375 0.0 10261190
17:00+13св553926 0.0 10261361
20:00+10ссв57566 0.0 1027552
23 апреля, пт
пт2323:00+5ссв49725 0.0 1028244
02:00+4св38775 0.0 1028207
05:00+3всв27830 0.0 1029200
08:00+3всв37775 0.0 1030220
11:00+9всв46451 0.0 1030727
14:00+13всв45335 0.0 10291162
17:00+15всв45305 0.0 10271340
20:00+12св47515 0.0 1027578
24 апреля, сб
сб2423:00+7св37650 0.0 1028187
02:00+6всв396758 0.0 1027249
05:00+5всв3108399 0.0 1027257
08:00+5всв3979100 0.0 1027259
11:00+10всв5757100 0.0 1027632
14:00+14всв5639100 0.0 10261162
17:00+15св574077 0.0 10251380
20:00+11ссв5862100 0.0 1026687
25 апреля, вс
вс2523:00+8св4107496 0.0 1027314
02:00+6св4117595 0.0 1027405
05:00+4св411790 0.0 1027360
08:00+4св410740 0.0 1027371
11:00+9св57440 0.0 1027805
14:00+13св56320 0.0 10251202
17:00+14св56320 0.0 10241487
20:00+10ссв610590 0.0 1023547
26 апреля, пн
пн2623:00+7ссв512720 0.0 1023389
02:00+5св4117973 0.0 1023328
05:00+3св410850 0.0 1022286
08:00+3св49800 0.0 1021314
11:00+9св46475 0.0 1020810
14:00+13св453298 0.0 10181250
17:00+14св553279 0.0 10151474
20:00+10с5864100 0.0 1014575